Home > Weather > Prudhoe Bay > Past weeks

Flag for USA Past Weather in Prudhoe Bay, Alaska, USA — Yesterday and Last 2 Weeks

Now
41 °F

Fog.


Feels Like: 33 °F
Forecast: 40 / 57 °F
Wind: 16 mph from East

Location: Deadhorse Airport

Current Time: Aug 24, 2016 at 12:53:56 AM

Latest Report: Aug 23, 2016 at 11:53 PM


Visibility: 2 mi

Pressure: 30.09 "Hg

Humidity: 96%

Dew Point: 40 °F

Location of Prudhoe BayLocation

Past Weather in Prudhoe Bay — Graph

°F

Prudhoe Bay Temperature Yesterday

Maximum temperature yesterday: 41 °F (at 3:53 PM)
Minimum temperature yesterday: 37 °F (at 12:53 AM)
Average temperature yesterday: 39 °F

High & Low Weather Summary for the Past Weeks

 TemperatureHumidityPressure
High69 °F (Aug 18, 11:53 AM)100% (Aug 11, 9:53 PM)30.13 "Hg (Aug 11, 9:53 PM)
Low37 °F (Aug 17, 4:53 AM)44% (Aug 18, 11:53 AM)29.47 "Hg (Aug 21, 10:53 PM)
Average43 °F89%29.83 "Hg
* Reported Aug 8 10:53 PM — Aug 23 10:53 PM, Prudhoe Bay, Weather by CustomWeather, © 2016

Note: Actual official high and low records may vary slightly from our data, if they occured in-between our weather recording intervals... More about our weather records

Advertising

Prudhoe Bay Weather History for the Previous 24 Hours

Scroll right to see more
 ConditionsComfort  
Time TempWeatherWind HumidityBarometerVisibility
10:53 PM
Tue, Aug 23
41 °FFog.18 mph96%30.09 "Hg2 mi
9:53 PM41 °FFog.20 mph96%30.09 "Hg2 mi
8:53 PM41 °FFog.18 mph96%30.09 "Hg1 mi
8:04 PM40 °FFog.20 mph97%30.08 "Hg1 mi
7:53 PM40 °FFog.20 mph97%30.08 "Hg2 mi
6:53 PM40 °FFog.18 mph97%30.08 "Hg3 mi
5:53 PM41 °FFog.18 mph89%30.07 "Hg5 mi
4:53 PM41 °FLow clouds.21 mph89%30.06 "Hg10 mi
3:53 PM41 °FLow clouds.21 mph86%30.06 "Hg10 mi
3:00 PM40 °FLow clouds.24 mph86%30.06 "Hg10 mi
2:53 PM40 °FLow clouds.23 mph86%30.06 "Hg10 mi
2:00 PM40 °FMore clouds than sun.20 mph86%30.05 "Hg10 mi
12:53 PM40 °FLow clouds.22 mph86%30.05 "Hg10 mi
11:53 AM39 °FLow clouds.22 mph89%30.04 "Hg10 mi
10:53 AM39 °FOvercast.18 mph89%30.03 "Hg10 mi
9:53 AM38 °FOvercast.21 mph90%30.03 "Hg10 mi
8:53 AM37 °FOvercast.16 mph89%30.02 "Hg10 mi
7:53 AM37 °FOvercast.20 mph89%30.02 "Hg10 mi
6:53 AM37 °FOvercast.17 mph89%30.01 "Hg10 mi
5:53 AM37 °FOvercast.15 mph89%30.00 "Hg10 mi
4:53 AM37 °FOvercast.14 mph89%30.00 "Hg10 mi
3:53 AM37 °FOvercast.18 mph86%29.98 "Hg10 mi
2:53 AM37 °FOvercast.15 mph86%29.98 "Hg10 mi
1:53 AM37 °FOvercast.16 mph86%29.98 "Hg10 mi
12:53 AM37 °FOvercast.15 mph82%29.96 "Hg10 mi
Weather by CustomWeather, © 2016

See weather overviewHow to use our weather pages